Location: Unnamed
(51.8936°N, 11.0665°E)
Time: 04:35:07
(UTC+02:00)

KAITUO 1B - Pass Details

Date: 30 September 2021
Orbit: 488 x 510 km, 97.4° (Epoch: 18 October)

Event Time Altitude Azimuth Distance (km) Brightness Sun altitude
Rises 06:37:34 0° 31° (NNE) 2,580 ? -6.6°
Reaches altitude 10° 06:40:44 10° 62° (ENE) 1,688 ? -6.1°
Maximum altitude 06:42:21 12° 88° (E) 1,534 ? -5.9°
Drops below altitude 10° 06:43:57 10° 115° (ESE) 1,680 ? -5.6°
Sets 06:47:05 0° 145° (SE) 2,554 ? -5.1°
